Location: Observatorio Las Palmas
(29.0667°N, 110.9333°W)
Time: 04:47:28
(UTC-07:00)

Hubble Space Telescope - Visible Passes

Search period start: 01 May 2016 00:00
Search period end: 11 May 2016 00:00
Orbit: 539 x 543 km, 28.5° (Epoch: 30 April)

Date Brightness Start Highest point End Pass type
(mag) Time Alt. Az. Time Alt. Az. Time Alt. Az.
01 May 0.9 03:53:18 57° SSE 03:53:18 57° SSE 03:57:11 10° E visible
02 May 1.1 03:44:05 57° ESE 03:44:05 57° ESE 03:47:36 10° E visible
03 May 1.4 03:34:53 49° ESE 03:34:53 49° ESE 03:38:02 10° E visible
03 May 0.8 05:11:00 10° W 05:15:08 79° S 05:19:17 10° E visible
04 May 1.9 03:25:44 39° E 03:25:44 39° E 03:28:26 10° E visible
04 May 0.8 05:01:25 10° W 05:05:32 73° S 05:09:39 10° ESE visible
05 May 2.4 03:16:38 30° E 03:16:38 30° E 03:18:50 10° E visible
05 May 0.8 04:52:02 11° W 04:55:56 65° S 05:00:01 10° ESE visible
06 May 2.8 03:07:37 23° E 03:07:37 23° E 03:09:14 10° E visible
06 May 0.9 04:43:02 15° W 04:46:17 56° SSW 04:50:21 10° ESE visible
07 May 3.3 02:58:43 16° E 02:58:43 16° E 02:59:38 10° E visible
07 May 1.1 04:34:08 20° W 04:36:40 47° SSW 04:40:38 10° ESE visible
08 May 3.7 02:49:58 10° E 02:49:58 10° E 02:50:01 10° E visible
08 May 1.3 04:25:23 27° WSW 04:27:00 39° SSW 04:30:52 10° SE visible
09 May 1.5 04:16:48 31° SW 04:17:20 32° SSW 04:21:03 10° SE visible
10 May 2.0 04:08:23 24° S 04:08:23 24° S 04:11:07 10° SE visible
